Location: �quirre
(50.4736°N, 2.2351°E)
Time: 05:34:08
(UTC+00:00)

Cosmos 44 Rocket - Pass Details

Date: 07 August 2020
Orbit: 647 x 743 km, 65.1° (Epoch: 19 September)

Event Time Altitude Azimuth Distance (km) Brightness Sun altitude
Rises 00:47:00 0° 318° (NW) 3,085 7.1 -22.3°
Reaches altitude 10° 00:49:20 10° 316° (NW) 2,180 6.2 -22.2°
Maximum altitude 00:54:16 68° 234° (SW) 775 3.3 -22.0°
Enters shadow 00:55:09 56° 181° (S) 859 3.4 -22.0°
